Aérodrome :
LOGIN :

S'inscrire | Disclaimer

   EN    FR    IT 

 










Légende :    VFR   VFR Marginal   IFR   IFR Intensif   IFR Très Intensif
Visi : 
Plafond : 
>= 8 km
>= 3000ft
5 à 8 km
1000 à 3000 ft
1500m à 5 km
500 à 1000 ft
800 à 1500m
200 à 500 ft
< 800m
< 200 ft
Symboles :   Orages  Brouillard  Fortes neiges  Fortes précipitations  Vent > 20 kt
SIGMETs :   Divers  Orages  Givrage  Turbulence  Onde Orograph.  Cendres Volcan.







- Altitude de l'aérodrome : 106 ft
- Code IATA : NRN


EDLV - Weeze

DERNIER METAR :
  • 171320Z 15007KT 120V180 CAVOK 15/05 Q1019

METARs EXPIRÉS :
  • 171250Z 14007KT 110V170 CAVOK 14/04 Q1020
  • 171220Z 14007KT CAVOK 14/04 Q1020
  • 171150Z 15008KT CAVOK 13/04 Q1020
  • 171120Z 14007KT 110V170 CAVOK 12/04 Q1021
  • 171050Z 14007KT CAVOK 11/04 Q1021

TAF TAF EDLV
Valide du 17 à 12h jusqu'au 18 à 12h UTC


171100Z 1712/1812 17007KT CAVOK
Pas de NOTAMs connus pour ce terrain.



MET'MAP, la Météo Aéronautique d'un coup d'oeil ! - Copyright ORBIFLY Décembre 2007 - Disclaimer

ORBIFLY MET'MAP TEAM :

Programmation & Développement : Alexandra Zaïnal
Conception & Développement : Baudouin d'Aumeries
Co-Programmation & Développement : Marc-Olivier Méhu
Soutien technique & logistique : Manuel Goepfert

Contact : metmap@orbifly.com




SOURCES & CREDITS :

   NOAA